RH
100 100 100 100 100 100 100 100 100 100 99 82 58 65 63 55 64 85 59 73 80 87 87 75 69 69 86 80 89 100 100 98 84 66 55 48 42 38
100 100 100 100 100 100 100 100 100 100 91 72 68 83 70 74 77 65 68 64 71 65 62 66 71 84 80 80 83 86 92 94 98 99 93 77 61 51
100 100 100 100 100 100 100 100 100 100 82 82 98 93 71 77 93 87 64 63 58 61 65 61 60 56 57 56 54 52 50 51 52 52 56 58 61 59
100 100 100 100 100 100 100 100 100 99 85 98 80 69 70 80 88 83 63 60 58 56 51 46 42 36 32 30 28 27 27 29 30 31 32 30 32 35
100 100 100 100 100 100 100 100 100 100 97 76 71 55 62 72 57 60 51 49 45 38 34 27 23 22 21 24 31 36 39 38 35 34 32 31 28 24
100 100 100 100 100 100 100 100 85 74 62 56 56 66 65 65 60 54 49 36 32 36 34 31 32 30 27 26 27 26 26 27 28 29 28 26 21 20
98 100 100 100 100 100 93 96 76 75 61 62 71 86 96 58 56 46 32 25 43 44 39 35 31 26 23 22 20 17 16 14 13 13 14 15 17 19
100 100 100 100 98 82 74 60 66 74 85 82 97 66 65 56 42 42 48 46 44 41 32 34 25 26 21 18 11 7 5 4 4 4 5 5 5 6
100 92 94 88 72 57 72 76 96 94 72 67 74 72 63 48 49 48 44 39 37 34 25 32 24 22 13 9 6 5 4 4 4 3 3 4 4 4
96 80 68 73 82 89 98 99 78 78 85 79 60 51 46 46 43 40 38 37 35 29 17 14 12 10 7 4 3 2 2 3 3 4 4 4 4 3
58 80 92 99 95 79 86 97 93 84 61 53 50 51 48 43 41 39 34 30 19 13 7 7 6 4 5 5 3 2 2 3 3 4 4 3 3 3
100 100 99 100 100 99 93 78 59 58 60 62 55 46 46 43 36 32 21 13 10 8 4 5 4 4 5 3 3 3 3 3 3 3 4 4 4 4
100 100 98 99 99 84 64 60 64 65 57 53 54 50 41 33 25 14 9 7 6 6 5 5 5 4 4 5 4 4 4 4 4 4 4 4 4 4
94 90 79 66 60 63 69 67 60 59 55 49 44 37 30 15 10 7 6 6 6 6 6 6 6 5 5 5 5 4 4 4 4 4 4 4 4 4
90 85 85 88 82 66 59 58 53 49 43 38 29 16 11 8 8 8 7 7 8 8 6 6 6 6 6 6 6 6 5 5 5 5 5 5 6 5
96 85 79 69 61 58 52 44 40 35 24 12 10 8 8 8 8 9 9 8 6 6 8 7 6 6 7 7 7 7 7 7 8 8 8 7 6 6
79 70 61 55 50 44 39 31 24 14 9 8 9 9 8 9 10 10 8 7 7 7 7 9 9 8 8 9 10 12 14 13 14 13 12 11 10 10
62 55 51 46 41 29 21 13 9 8 9 9 9 10 11 12 9 7 7 8 8 8 8 9 11 14 17 19 18 16 14 13 12 11 10 9 10 9
55 49 42 27 17 10 9 8 8 10 10 12 14 14 10 9 7 7 8 8 9 10 11 16 19 21 22 19 16 13 12 13 12 11 10 8 6 7
40 28 17 11 9 8 7 9 10 10 13 15 12 9 8 7 7 9 10 9 9 13 21 22 22 20 18 15 14 17 16 13 11 8 7 9 10 10
22 12 10 8 7 7 9 10 12 14 14 10 9 8 7 8 9 10 9 11 14 23 23 22 20 18 17 17 14 12 13 13 14 14 12 11 8 8
10 9 8 7 7 10 11 12 16 13 10 9 8 7 8 10 10 10 11 16 26 24 22 20 19 18 16 15 14 15 14 13 13 12 12 11 10 8
9 9 7 7 10 11 11 15 14 11 8 8 8 8 10 10 12 11 16 26 25 23 20 18 22 25 23 22 19 16 16 14 12 11 11 10 10 9
Wind_Speed
77 77 78 79 82 81 82 83 84 82 85 87 87 84 84 80 79 84 80 78 79 77 84 87 87 85 80 79 76 74 75 77 77 76 79 82 86 92
79 81 79 83 83 84 83 84 85 86 86 89 89 91 90 86 86 85 84 83 83 86 89 89 87 77 77 75 76 78 79 80 80 81 82 82 82 84
83 83 84 87 85 84 82 83 85 88 89 86 90 95 92 87 88 90 86 85 90 92 92 85 82 81 80 82 82 83 84 85 86 87 88 88 88 88
82 85 85 86 85 83 81 85 85 89 90 91 94 95 92 87 89 92 93 95 87 85 85 87 87 84 86 86 85 85 85 86 88 90 92 92 94 95
83 85 86 87 81 82 83 84 86 92 95 96 99 90 87 91 92 92 93 88 88 89 91 90 88 88 88 86 85 85 88 89 92 94 96 98 100 102
78 78 77 77 78 80 82 87 93 94 96 94 89 86 90 94 95 94 92 94 91 96 97 93 89 89 92 91 93 95 96 98 99 100 102 104 107 109
68 71 73 75 79 82 85 90 94 94 94 88 90 95 101 98 96 95 93 91 96 97 98 102 101 102 103 101 101 101 101 101 100 100 102 104 107 109
62 68 72 77 81 83 87 90 84 83 90 93 94 99 98 100 98 97 98 97 100 107 108 112 109 112 111 111 105 101 97 93 91 89 90 94 97 100
63 69 71 76 80 77 79 81 86 89 90 92 96 100 103 100 96 99 103 106 111 115 110 118 116 116 108 103 97 92 89 84 80 77 78 82 86 89
64 68 71 73 77 78 80 84 89 92 94 99 102 100 98 101 104 108 112 117 121 123 112 105 103 98 95 93 87 80 74 70 66 66 70 75 79 80
62 62 64 70 75 78 81 87 91 95 97 97 99 103 106 110 112 116 121 122 117 108 96 89 92 85 83 83 78 71 63 58 57 60 63 65 66 65
59 64 70 74 79 84 87 89 90 92 97 102 107 110 114 117 119 120 114 106 98 94 87 82 78 72 73 71 65 62 61 57 57 56 57 58 58 58
66 70 72 76 82 86 85 87 92 97 102 107 113 117 118 119 117 107 98 90 83 79 74 70 67 66 65 67 62 60 57 54 49 47 47 46 46 47
68 73 76 79 81 86 91 95 99 105 110 113 116 118 116 106 98 89 80 76 68 65 64 61 62 61 60 58 54 48 48 42 38 36 35 35 35 35
70 75 80 85 89 93 97 102 106 108 112 116 114 103 97 88 80 76 69 64 57 57 60 59 56 54 51 47 43 40 36 36 32 30 30 29 29 29
76 80 85 90 94 97 99 102 106 108 104 97 93 85 77 73 67 61 56 53 54 53 51 53 50 43 40 40 36 34 31 28 28 26 24 26 25 26
82 86 89 91 95 99 102 103 97 93 89 82 75 71 66 59 51 51 51 53 55 53 45 40 40 38 35 33 31 29 27 27 26 25 25 23 24 24
83 86 90 94 99 98 93 87 83 76 70 66 62 60 53 50 48 49 50 51 47 44 37 33 31 30 29 29 29 29 28 27 28 26 25 23 23 24
84 90 94 92 85 80 77 73 67 62 59 54 52 51 49 50 50 49 48 44 37 34 30 27 25 25 26 27 29 28 26 27 28 28 30 28 25 21
86 87 79 76 74 71 64 57 55 52 48 46 47 48 49 47 48 44 40 37 30 26 23 24 25 25 26 25 25 24 27 29 29 28 24 20 21 22
80 74 70 67 65 58 53 50 48 44 42 43 44 46 46 45 42 36 33 29 25 22 22 23 24 23 23 24 25 25 23 23 25 28 29 29 24 19
68 64 63 60 55 50 47 44 41 40 42 42 44 44 43 40 36 30 27 22 18 19 20 22 21 20 21 24 26 28 25 21 20 21 23 23 23 19
62 60 58 53 48 46 43 39 37 38 39 40 41 42 39 35 29 26 20 17 18 19 21 20 19 21 24 25 25 25 24 25 24 21 21 21 20 21
Wind_Direction
276 278 281 283 284 286 287 286 285 284 286 290 292 296 296 297 297 298 295 294 290 289 289 289 290 289 288 284 282 281 281 281 280 277 273 270 266 263
274 276 279 280 283 284 285 284 284 288 290 292 294 297 298 298 298 298 296 293 290 288 289 291 290 284 280 279 278 277 276 275 274 274 274 273 270 267
273 275 278 279 280 281 281 281 283 286 288 291 290 292 294 295 296 296 291 289 289 291 289 287 283 283 281 280 279 278 277 276 275 274 272 270 269 268
273 274 276 277 278 278 279 280 281 283 285 286 287 292 292 292 292 293 292 289 290 285 284 286 285 284 283 281 279 276 275 275 274 272 271 271 268 266
270 275 275 276 275 276 277 278 280 283 285 289 289 292 291 290 291 292 293 289 289 288 288 287 285 284 284 284 283 282 279 275 272 269 268 267 266 265
269 272 274 273 273 274 276 278 280 284 286 288 291 293 293 294 294 293 289 288 291 295 294 293 292 292 290 286 285 283 279 275 272 270 267 266 265 264
266 271 271 272 272 273 275 278 283 286 291 293 294 295 293 292 293 293 290 294 298 296 297 297 297 294 292 291 287 283 279 275 274 272 271 269 268 267
267 268 268 270 271 275 279 282 289 292 291 293 294 291 295 294 295 298 299 299 299 298 297 299 298 298 296 293 287 284 282 280 279 277 275 272 269 267
262 265 269 273 279 285 289 290 292 288 287 290 293 294 292 295 297 298 299 301 301 300 300 299 298 297 293 290 287 286 286 286 285 281 277 272 270 267
265 271 276 281 286 290 292 290 290 293 294 294 291 292 297 301 301 302 302 303 302 301 298 298 297 294 292 291 291 290 288 286 283 277 272 269 268 267
275 284 287 288 289 287 290 291 292 292 290 293 298 301 301 302 303 304 303 302 301 299 297 298 294 295 296 292 292 294 294 290 282 276 273 273 273 272
280 284 286 287 289 290 290 290 291 295 298 299 300 301 302 303 302 302 301 301 302 301 300 299 298 297 295 295 296 297 293 289 286 285 280 277 275 272
286 286 287 287 287 287 291 294 295 297 298 299 299 300 300 302 302 301 301 301 301 300 299 299 298 299 298 298 300 298 297 294 292 286 281 278 276 273
287 288 288 290 293 296 298 299 299 298 297 298 299 300 301 301 300 300 301 300 301 300 300 299 298 298 298 299 300 299 298 296 293 290 286 283 279 274
291 292 295 296 296 298 299 298 297 297 299 299 299 299 299 300 300 300 301 301 301 301 301 300 300 302 302 300 302 302 299 302 301 298 293 289 285 281
293 295 296 296 297 297 296 297 299 298 298 299 298 298 299 299 299 298 300 301 304 305 303 303 304 304 305 306 307 306 306 303 301 298 292 289 286 281
296 295 295 297 297 298 300 298 298 298 298 298 299 299 299 300 302 303 305 306 307 308 308 304 306 309 309 310 311 311 312 309 308 305 302 296 290 285
297 299 298 298 300 300 298 299 300 300 300 299 300 301 305 307 307 306 306 307 308 308 309 310 310 313 317 318 315 316 315 311 310 308 304 299 294 292
298 298 300 301 300 302 301 301 300 300 302 303 305 307 309 309 307 308 307 307 310 310 314 315 318 322 321 318 317 317 315 314 314 312 310 311 308 299
301 303 302 302 304 303 303 302 301 303 306 308 308 310 310 310 309 309 308 311 314 318 316 320 323 324 321 319 316 313 314 317 316 315 313 308 302 302
304 305 305 307 308 306 305 304 305 308 309 310 312 313 312 312 312 312 313 316 322 318 319 324 327 324 322 321 322 324 320 316 314 312 312 313 314 308
307 308 310 312 311 310 308 308 309 312 312 311 313 315 316 316 316 316 317 320 317 314 321 330 328 323 324 327 332 333 331 328 320 314 309 307 308 303
312 314 315 314 313 311 309 308 311 314 314 313 316 318 317 317 317 318 321 322 323 326 332 335 332 334 336 335 331 331 330 329 329 326 325 325 322 319